Weather History for Detroit Lakes, MN

Change the Weather History Date:

Tuesday, October 30, 2012

  Actual Average Record
Temperature  
Mean Temperature 38 °F -  
Max Temperature 42 °F 50 °F 70 °F (1950)
Min Temperature 35 °F 29 °F 7 °F (1991)
Degree Days  
Heating Degree Days 26    
Moisture  
Dew Point 30 °F    
Average Humidity 72    
Maximum Humidity 87    
Minimum Humidity 57    
Precipitation  
Precipitation 0.00 in - - ()
Sea Level Pressure  
Sea Level Pressure 30.16 in    
Wind  
Wind Speed 9 mph (SE)    
Max Wind Speed 14 mph    
Max Gust Speed 18 mph    
Visibility 10 miles    
Events      
Averages and records for this station are not official NWS values.
T = Trace of Precipitation, MM = Missing Value Source: NWS Daily Summary

Daily Weather History Graph

Daily Weather History Graph

Search for Another Location

Airport:

Trip Planner

Search our weather history database for the weather conditions in past years. The results will help you decide how hot, cold, wet, or windy it might be!

Date:

Astronomy

Oct. 30, 2012 Rise Set
Actual Time 8:03 AM CDT 6:09 PM CDT
Civil Twilight 7:32 AM CDT 6:41 PM CDT
Nautical Twilight 6:56 AM CDT 7:17 PM CDT
Astronomical Twilight 6:21 AM CDT 7:52 PM CDT
Moon 6:34 PM CDT (10/30) 8:56 AM CDT (10/30)
Length of Visible Light 11h 09m
Length of Day
10h 06m
Full, 99% of the Moon is Illuminated
Oct 30
Full
Nov 6
Last Quarter
Nov 13
New
Nov 20
First Quarter
Nov 28
Full

Hourly Weather History & Observations

Time (CDT) Temp. Windchill Dew Point Humidity Pressure Visibility Wind Dir Wind Speed Gust Speed Precip Events Conditions
12:13 AM 35.6 °F 27.5 °F 30.2 °F 81% 30.20 in 10.0 mi SE 11.5 mph - N/A   Clear
12:32 AM 35.6 °F 28.6 °F 30.2 °F 81% 30.20 in 10.0 mi SE 9.2 mph - N/A   Clear
12:53 AM 35.6 °F 28.0 °F 30.2 °F 81% 30.20 in 10.0 mi SE 10.4 mph - N/A   Clear
1:13 AM 35.6 °F 28.0 °F 30.2 °F 81% 30.20 in 10.0 mi SSE 10.4 mph - N/A   Clear
1:32 AM 35.6 °F 28.0 °F 30.2 °F 81% 30.21 in 10.0 mi SSE 10.4 mph - N/A   Clear
1:53 AM 35.6 °F 28.0 °F 30.2 °F 81% 30.21 in 10.0 mi SE 10.4 mph - N/A   Clear
2:12 AM 35.6 °F 28.0 °F 30.2 °F 81% 30.20 in 10.0 mi SE 10.4 mph - N/A   Clear
2:53 AM 35.6 °F 28.6 °F 30.2 °F 81% 30.20 in 10.0 mi SE 9.2 mph - N/A   Clear
3:12 AM 35.6 °F 27.5 °F 30.2 °F 81% 30.20 in 10.0 mi SE 11.5 mph - N/A   Clear
3:53 AM 35.6 °F 28.6 °F 28.4 °F 75% 30.19 in 10.0 mi SE 9.2 mph - N/A   Clear
4:12 AM 35.6 °F 27.5 °F 28.4 °F 75% 30.18 in 10.0 mi SE 11.5 mph - N/A   Clear
4:32 AM 35.6 °F 28.6 °F 28.4 °F 75% 30.19 in 10.0 mi SSE 9.2 mph - N/A   Clear
4:53 AM 35.6 °F 28.0 °F 28.4 °F 75% 30.19 in 10.0 mi SSE 10.4 mph - N/A   Clear
5:12 AM 35.6 °F 29.2 °F 28.4 °F 75% 30.19 in 10.0 mi SE 8.1 mph - N/A   Clear
5:32 AM 35.6 °F 28.0 °F 28.4 °F 75% 30.19 in 10.0 mi SE 10.4 mph - N/A   Clear
5:53 AM 35.6 °F 29.2 °F 28.4 °F 75% 30.19 in 10.0 mi SE 8.1 mph - N/A   Clear
6:12 AM 35.6 °F 28.0 °F 28.4 °F 75% 30.19 in 10.0 mi SE 10.4 mph - N/A   Clear
6:32 AM 35.6 °F 28.0 °F 26.6 °F 70% 30.19 in 10.0 mi SE 10.4 mph - N/A   Clear
6:53 AM 35.6 °F 29.2 °F 26.6 °F 70% 30.19 in 10.0 mi SE 8.1 mph - N/A   Clear
7:12 AM 35.6 °F 29.9 °F 26.6 °F 70% 30.19 in 10.0 mi SE 6.9 mph - N/A   Clear
7:33 AM 35.6 °F 29.2 °F 26.6 °F 70% 30.19 in 10.0 mi SE 8.1 mph - N/A   Clear
7:53 AM 35.6 °F 28.6 °F 26.6 °F 70% 30.19 in 10.0 mi SE 9.2 mph - N/A   Clear
8:12 AM 35.6 °F 27.5 °F 28.4 °F 75% 30.19 in 10.0 mi SE 11.5 mph - N/A   Clear
8:33 AM 35.6 °F 27.1 °F 28.4 °F 75% 30.19 in 10.0 mi SE 12.7 mph - N/A   Clear
8:53 AM 35.6 °F 26.6 °F 28.4 °F 75% 30.19 in 10.0 mi SE 13.8 mph - N/A   Clear
9:12 AM 35.6 °F 26.6 °F 28.4 °F 75% 30.18 in 10.0 mi SE 13.8 mph 18.4 mph N/A   Clear
9:33 AM 37.4 °F 28.9 °F 28.4 °F 70% 30.18 in 10.0 mi SE 13.8 mph 17.3 mph N/A   Clear
9:53 AM 37.4 °F 30.3 °F 28.4 °F 70% 30.18 in 10.0 mi SE 10.4 mph - N/A   Clear
10:12 AM 37.4 °F 29.3 °F 28.4 °F 70% 30.18 in 10.0 mi SE 12.7 mph - N/A   Scattered Clouds
10:33 AM 37.4 °F 29.3 °F 28.4 °F 70% 30.18 in 10.0 mi SE 12.7 mph - N/A   Scattered Clouds
10:53 AM 39.2 °F 31.6 °F 28.4 °F 65% 30.18 in 10.0 mi SE 12.7 mph - N/A   Clear
11:12 AM 39.2 °F 32.0 °F 28.4 °F 65% 30.18 in 10.0 mi SE 11.5 mph - N/A   Clear
11:33 AM 39.2 °F 31.2 °F 28.4 °F 65% 30.18 in 10.0 mi SE 13.8 mph - N/A   Clear
11:53 AM 41.0 °F 34.3 °F 28.4 °F 61% 30.18 in 10.0 mi SE 11.5 mph - N/A   Clear
12:12 PM 41.0 °F 35.2 °F 30.2 °F 65% 30.18 in 10.0 mi SE 9.2 mph 12.7 mph N/A   Clear
12:33 PM 41.0 °F 33.9 °F 30.2 °F 65% 30.18 in 10.0 mi SE 12.7 mph - N/A   Clear
12:53 PM 41.0 °F 34.3 °F 30.2 °F 65% 30.18 in 10.0 mi SE 11.5 mph - N/A   Clear
1:12 PM 41.0 °F 33.5 °F 30.2 °F 65% 30.17 in 10.0 mi SE 13.8 mph - N/A   Clear
1:33 PM 41.0 °F 33.9 °F 30.2 °F 65% 30.17 in 10.0 mi SE 12.7 mph - N/A   Clear
1:53 PM 41.0 °F 33.5 °F 30.2 °F 65% 30.16 in 10.0 mi SE 13.8 mph - N/A   Clear
2:12 PM 41.0 °F 34.3 °F 30.2 °F 65% 30.16 in 10.0 mi SE 11.5 mph - N/A   Clear
2:33 PM 42.8 °F 36.2 °F 30.2 °F 61% 30.15 in 10.0 mi SE 12.7 mph - N/A   Clear
2:53 PM 42.8 °F 36.2 °F 30.2 °F 61% 30.15 in 10.0 mi SSE 12.7 mph - N/A   Scattered Clouds
3:12 PM 42.8 °F 38.0 °F 30.2 °F 61% 30.15 in 10.0 mi SSE 8.1 mph - N/A   Scattered Clouds
3:33 PM 42.8 °F 38.0 °F 30.2 °F 61% 30.15 in 10.0 mi SE 8.1 mph - N/A   Scattered Clouds
3:53 PM 42.8 °F 38.0 °F 30.2 °F 61% 30.15 in 10.0 mi SE 8.1 mph - N/A   Clear
4:12 PM 42.8 °F 39.3 °F 30.2 °F 61% 30.15 in 10.0 mi SSE 5.8 mph - N/A   Clear
4:33 PM 42.8 °F 38.6 °F 30.2 °F 61% 30.14 in 10.0 mi SE 6.9 mph - N/A   Clear
4:53 PM 42.8 °F 38.6 °F 28.4 °F 57% 30.13 in 10.0 mi SE 6.9 mph - N/A   Scattered Clouds
5:12 PM 42.8 °F 39.3 °F 30.2 °F 61% 30.13 in 10.0 mi SSE 5.8 mph - N/A   Mostly Cloudy
5:33 PM 42.8 °F 39.3 °F 30.2 °F 61% 30.13 in 10.0 mi SE 5.8 mph - N/A   Overcast
5:52 PM 42.8 °F 39.3 °F 30.2 °F 61% 30.13 in 10.0 mi SE 5.8 mph - N/A   Overcast
6:13 PM 41.0 °F 38.0 °F 32.0 °F 70% 30.13 in 10.0 mi SE 4.6 mph - N/A   Overcast
6:33 PM 41.0 °F 38.0 °F 32.0 °F 70% 30.12 in 10.0 mi SE 4.6 mph - N/A   Overcast
6:52 PM 41.0 °F 39.0 °F 32.0 °F 70% 30.12 in 10.0 mi SE 3.5 mph - N/A   Overcast
7:13 PM 42.8 °F - 32.0 °F 66% 30.12 in 10.0 mi Calm Calm - N/A   Overcast
7:32 PM 41.0 °F 39.0 °F 32.0 °F 70% 30.12 in 10.0 mi ESE 3.5 mph - N/A   Overcast
7:53 PM 41.0 °F - 32.0 °F 70% 30.12 in 10.0 mi Calm Calm - N/A   Mostly Cloudy
8:13 PM 41.0 °F - 32.0 °F 70% 30.12 in 10.0 mi Calm Calm - N/A   Scattered Clouds
8:32 PM 41.0 °F 39.0 °F 32.0 °F 70% 30.11 in 10.0 mi ESE 3.5 mph - N/A   Scattered Clouds
8:53 PM 39.2 °F 35.0 °F 32.0 °F 75% 30.09 in 10.0 mi ESE 5.8 mph - N/A   Clear
9:13 PM 37.4 °F 33.8 °F 32.0 °F 81% 30.09 in 10.0 mi ESE 4.6 mph - N/A   Clear
9:32 PM 37.4 °F 32.8 °F 32.0 °F 81% 30.08 in 10.0 mi ESE 5.8 mph - N/A   Clear
9:53 PM 37.4 °F - 32.0 °F 81% 30.09 in 10.0 mi Calm Calm - N/A   Clear
10:13 PM 35.6 °F - 30.2 °F 81% 30.09 in 10.0 mi Calm Calm - N/A   Clear
10:32 PM 35.6 °F - 30.2 °F 81% 30.09 in 10.0 mi Calm Calm - N/A   Clear
10:53 PM 35.6 °F - 30.2 °F 81% 30.11 in 10.0 mi Calm Calm - N/A   Clear
11:13 PM 35.6 °F - 32.0 °F 87% 30.11 in 10.0 mi Calm Calm - N/A   Mostly Cloudy
11:32 PM 35.6 °F 32.8 °F 32.0 °F 87% 30.09 in 10.0 mi ESE 3.5 mph - N/A   Overcast
11:53 PM 35.6 °F 31.7 °F 32.0 °F 87% 30.09 in 10.0 mi SE 4.6 mph - N/A   Overcast